Showing default

LEGION 1, 59625

Orbit data source: Space-Track

LEGION 1, 59625 is a payload satellite in SSO that was launched on Thu, 02 May 2024 UTC via an FALCON 9 launch vehicle from the Air Force Western Test Range (AFWTR). Payload-class satellites include a variety of spacecraft equipped with specific instruments for various scientific and technological missions. These include communications satellites like Starlink; space stations such as the ISS; scientific satellites like the Hubble; Earth observation satellites from companies like Planet Labs, Umbra, and HawkEye 360; GPS; miniature CubeSats for education and research; and military/defense satellites.

Loading next visibility...
Identifier
59625, 2024-081A
Orbit
SSO
Last TLE update
8 hours ago
Origin
Manufacturer
Maxar Space Inf
Mission
Operational spacecraft
Bus & Motor
LEGION, Unknown motor
Mass
~700 kg wet, 630 kg dry
Launch date (UTC)
2024-05-02 (1 year ago)
Launch vehicle
FALCON 9
Launch site
Air Force Western Test Range (AFWTR)
Object type
Payload
Rocket body
Debris
Shape & HBR
Unknown
Radar Cross Section
Large (>1 m²)

Expand to show TLE details & history

TLE from 8 hours ago
0 LEGION 1
1 59625U 24081A   25147.90886127  .00004043  00000-0  21027-3 0  9998
2 59625  97.5369 223.8807 0005580  93.4732 266.7140 15.16615592 59139
Epoch: 2025-05-27T21:48Z
TLE epoch observation values (Epoch: 2025-05-27T21:48:45.613Z)
Latitude
0.00004°
Longitude
10.99074°
Altitude
519.383 km
Speed
7.604 km/s
True Right ascension
14h 55m 31s
True Declination
0° 00' 00"
Sunlit
Object was in full shadow at epoch
Visualization orbit readout
Latitude
-0.06792°
Longitude
11.32748°
Altitude
519.311 km
Speed
7.604 km/s
Apparent Right ascension
14h 31m 12s
Apparent Declination
-63° 41' 35"
Sunlit
Object is in full shadow
Visualization observer readout
Local Sidereal Time
15:07:24
Azimuth
184.117° SSW
Elevation
-13.859°
Doppler factor
1
Orbital elements
Apogee altitude
516.899 km
Perigee altitude
509.209 km
Semi-major axis
6,891.191 km
Eccentricity
0.00056
Inclination
97.5369°
RAAN
223.8807°
Arg. of periapsis
93.4732°
True anomaly
Unknown
Mean anomaly
266.714°
Eccentric anomaly
Unknown
Mean motion
3.79404 °/min
Orbital period
94.89 mins
BSTAR
0.00021027
Loading maneuver chart data...
Loading SW <> Apogee altitude chart data...
Loading historical data...
Loading historical data...
Loading historical data...
Loading historical data...
Loading historical data...
Loading historical data...
Loading historical data...
Other satellites on launch #81 in the year 2024 (2024-05-02 UTC)

LEGION 1 Visibility forecast

Observer location: undefined°, undefined°

Span
Click to sort rows by Start time (UTC) header in descending order
Start Az.
Max El. time (UTC)
Max El. Az.
Max El.
End time (UTC)
End Az.
5 mins2025-05-28 05:51:47.084Z219.638° SW2025-05-28 05:53:47.084Z258.177° W20.657°2025-05-28 05:56:47.084Z315.29° NNW
5 mins2025-05-28 17:23:47.084Z43.92° NE2025-05-28 17:25:47.084Z91.756° ESE28.109°2025-05-28 17:28:47.084Z158.424° S
4 mins2025-05-29 05:37:47.084Z218.779° SW2025-05-29 05:38:47.084Z245.58° WSW28.154°2025-05-29 05:41:47.084Z321.258° NNW
|